| time (UTC) | temp F | wind direction | speed MPH | gust MPH | rain 1hr in | rain 24hr in | rain mn in | humidity % | barometer mb |
| 20260504050219 | 43 | 182 | 0.0 | 0.0 | 0.00 | 0.00 | 0.00 | 89 | 1016.0 |
| 20260504045202 | 43 | 302 | 0.0 | 0.0 | 0.00 | 0.00 | 0.00 | 89 | 1016.0 |
| 20260504044156 | 44 | 305 | 0.0 | 3.0 | 0.00 | 0.00 | 0.00 | 89 | 1016.0 |
| 20260504043208 | 44 | 304 | 0.0 | 3.0 | 0.00 | 0.00 | 0.00 | 88 | 1016.0 |
| 20260504042211 | 44 | 296 | 0.0 | 0.0 | 0.00 | 0.00 | 0.00 | 87 | 1016.0 |
| 20260504041137 | 45 | 305 | 0.0 | 2.0 | 0.00 | 0.00 | 0.00 | 88 | 1015.6 |
| 20260504040153 | 45 | 207 | 0.0 | 0.0 | 0.00 | 0.00 | 0.00 | 86 | 1015.6 |
| 20260504035152 | 45 | 323 | 0.0 | 1.0 | 0.00 | 0.00 | 0.00 | 88 | 1015.7 |
| 20260504034145 | 45 | 316 | 0.0 | 0.0 | 0.00 | 0.00 | 0.00 | 86 | 1015.9 |
| 20260504033142 | 46 | 315 | 0.0 | 0.0 | 0.00 | 0.00 | 0.00 | 85 | 1015.9 |
| 20260504031031 | 47 | 319 | 0.0 | 2.0 | 0.00 | 0.00 | 0.00 | 83 | 1015.8 |
| 20260504030023 | 48 | 103 | 0.0 | 0.0 | 0.00 | 0.00 | 0.00 | 81 | 1015.7 |
| 20260504025022 | 48 | 182 | 0.0 | 2.0 | 0.00 | 0.00 | 0.00 | 81 | 1016.0 |
| 20260504024025 | 49 | 281 | 0.0 | 1.0 | 0.00 | 0.00 | 0.00 | 80 | 1015.7 |
| 20260504022951 | 49 | 121 | 0.0 | 2.0 | 0.00 | 0.00 | 0.00 | 80 | 1015.5 |
| 20260504022001 | 49 | 231 | 0.0 | 0.0 | 0.00 | 0.00 | 0.00 | 80 | 1015.4 |
| 20260504020934 | 50 | 319 | 0.0 | 2.0 | 0.00 | 0.00 | 0.00 | 79 | 1015.3 |
| 20260504015947 | 50 | 137 | 0.0 | 0.0 | 0.00 | 0.00 | 0.00 | 75 | 1015.4 |
| 20260504012722 | 51 | 137 | 0.0 | 0.0 | 0.00 | 0.00 | 0.00 | 71 | 1015.0 |
| 20260504011648 | 52 | 130 | 0.0 | 0.0 | 0.00 | 0.00 | 0.00 | 71 | 1014.8 |
| 20260504010620 | 52 | 130 | 0.0 | 1.0 | 0.00 | 0.00 | 0.00 | 68 | 1014.6 |
| 20260504005555 | 53 | 180 | 0.0 | 0.0 | 0.00 | 0.00 | 0.00 | 69 | 1015.2 |
| 20260504004616 | 54 | 173 | 0.0 | 0.0 | 0.00 | 0.00 | 0.00 | 67 | 1014.9 |
| 20260504003626 | 54 | 96 | 0.0 | 0.0 | 0.00 | 0.00 | 0.00 | 65 | 1014.8 |
| 20260504002648 | 55 | 96 | 0.0 | 0.0 | 0.00 | 0.00 | 0.00 | 63 | 1014.7 |
| 20260504001619 | 57 | 61 | 0.0 | 0.0 | 0.00 | 0.00 | 0.00 | 58 | 1014.6 |
| 20260504000559 | 58 | 277 | 0.0 | 0.0 | 0.00 | 0.00 | 0.00 | 57 | 1014.5 |
| 20260503235559 | 59 | 277 | 0.0 | 0.0 | 0.00 | 0.00 | 0.00 | 56 | 1014.6 |
| 20260503233446 | 62 | 277 | 0.0 | 0.0 | 0.00 | 0.00 | 0.00 | 42 | 1014.3 |
| 20260503232509 | 64 | 283 | 0.0 | 0.0 | 0.00 | 0.00 | 0.00 | 41 | 1014.0 |
| 20260503231441 | 66 | 259 | 0.0 | 5.0 | 0.00 | 0.00 | 0.00 | 36 | 1014.0 |
| 20260503230431 | 67 | 15 | 1.0 | 5.0 | 0.00 | 0.00 | 0.00 | 34 | 1014.1 |
| 20260503225402 | 68 | 288 | 0.0 | 2.0 | 0.00 | 0.00 | 0.00 | 31 | 1014.0 |
| 20260503224424 | 68 | 307 | 2.0 | 5.0 | 0.00 | 0.00 | 0.00 | 31 | 1014.0 |
| 20260503223449 | 68 | 329 | 2.0 | 5.0 | 0.00 | 0.00 | 0.00 | 31 | 1014.1 |
| 20260503222451 | 69 | 273 | 1.0 | 5.0 | 0.00 | 0.00 | 0.00 | 28 | 1014.1 |
| 20260503220333 | 69 | 322 | 1.0 | 10.0 | 0.00 | 0.00 | 0.00 | 28 | 1014.1 |
| 20260503215339 | 69 | 315 | 2.0 | 10.0 | 0.00 | 0.00 | 0.00 | 24 | 1014.2 |
| 20260503214339 | 69 | 313 | 2.0 | 9.0 | 0.00 | 0.00 | 0.00 | 27 | 1014.2 |
| 20260503213347 | 69 | 61 | 2.0 | 9.0 | 0.00 | 0.00 | 0.00 | 27 | 1014.2 |
| 20260503212320 | 69 | 72 | 2.0 | 8.0 | 0.00 | 0.00 | 0.00 | 24 | 1014.4 |
| 20260503211302 | 69 | 333 | 4.0 | 11.0 | 0.00 | 0.00 | 0.00 | 27 | 1014.5 |
| 20260503210237 | 70 | 355 | 2.0 | 11.0 | 0.00 | 0.00 | 0.00 | 22 | 1014.4 |
| 20260503204034 | 69 | 342 | 3.0 | 13.0 | 0.00 | 0.00 | 0.00 | 31 | 1014.6 |
| 20260503200729 | 68 | 31 | 1.0 | 9.0 | 0.00 | 0.00 | 0.00 | 31 | 1015.1 |
| 20260503195713 | 68 | 313 | 2.0 | 9.0 | 0.00 | 0.00 | 0.00 | 31 | 1015.2 |
| 20260503194717 | 69 | 192 | 1.0 | 6.0 | 0.00 | 0.00 | 0.00 | 33 | 1015.4 |
| 20260503193712 | 68 | 227 | 1.0 | 8.0 | 0.00 | 0.00 | 0.00 | 32 | 1015.4 |
| 20260503192649 | 68 | 309 | 2.0 | 8.0 | 0.00 | 0.00 | 0.00 | 24 | 1015.7 |
| 20260503191614 | 68 | 342 | 2.0 | 9.0 | 0.00 | 0.00 | 0.00 | 27 | 1015.9 |
| 20260503190626 | 68 | 331 | 3.0 | 9.0 | 0.00 | 0.00 | 0.00 | 30 | 1015.9 |
| 20260503185601 | 67 | 277 | 2.0 | 11.0 | 0.00 | 0.00 | 0.00 | 33 | 1016.0 |
| 20260503183508 | 67 | 163 | 3.0 | 13.0 | 0.00 | 0.00 | 0.00 | 26 | 1016.2 |
| 20260503182518 | 67 | 209 | 3.0 | 9.0 | 0.00 | 0.00 | 0.00 | 25 | 1016.3 |
| 20260503181537 | 66 | 67 | 3.0 | 9.0 | 0.00 | 0.00 | 0.00 | 30 | 1016.4 |
| 20260503180544 | 67 | 304 | 1.0 | 8.0 | 0.00 | 0.00 | 0.00 | 38 | 1016.4 |
| 20260503173303 | 65 | 194 | 1.0 | 4.0 | 0.00 | 0.00 | 0.00 | 40 | 1016.8 |
| 20260503172320 | 64 | 82 | 1.0 | 6.0 | 0.00 | 0.00 | 0.00 | 47 | 1017.0 |
| 20260503170155 | 63 | 76 | 1.0 | 3.0 | 0.00 | 0.00 | 0.00 | 43 | 1017.5 |
| 20260503130651 | 41 | 100 | 0.0 | 0.0 | 0.00 | 0.00 | 0.00 | 97 | 1019.0 |
| 20260503110328 | 36 | 98 | 0.0 | 0.0 | 0.00 | 0.00 | 0.00 | 95 | 1018.2 |
| 20260503100238 | 36 | 81 | 0.0 | 0.0 | 0.00 | 0.00 | 0.00 | 94 | 1017.2 |
| 20260503081023 | 38 | 46 | 0.0 | 0.0 | 0.00 | 0.00 | 0.00 | 93 | 1016.1 |
| 20260503072855 | 38 | 46 | 0.0 | 0.0 | 0.00 | 0.00 | 0.00 | 92 | 1015.4 |
| 20260503071823 | 39 | 46 | 0.0 | 0.0 | 0.00 | 0.00 | 0.00 | 92 | 1015.2 |
| 20260503070757 | 39 | 46 | 0.0 | 0.0 | 0.00 | 0.00 | 0.00 | 92 | 1015.0 |
| 20260503054415 | 41 | 12 | 0.0 | 0.0 | 0.00 | 0.00 | 0.00 | 89 | 1015.2 |
| 20260503053430 | 41 | 12 | 0.0 | 0.0 | 0.00 | 0.00 | 0.00 | 89 | 1015.3 |
| 20260503052413 | 41 | 12 | 0.0 | 0.0 | 0.00 | 0.00 | 0.00 | 88 | 1015.4 |
| 20260503051343 | 41 | 49 | 0.0 | 0.0 | 0.00 | 0.00 | 0.00 | 87 | 1015.3 |